Evansville, IN

9:04 AM CDT on September 21, 2019 (GMT -0500)
Evansville Regional

Weather History for KEVV - August, 2019

Change the Weather History Date:

Saturday, August 24, 2019

  Actual Average Record
Temperature  
Mean Temperature 68 °F 76 °F  
Max Temperature 78 °F 88 °F 101 °F (1943)
Min Temperature 59 °F 65 °F 52 °F (1966)
Degree Days  
Heating Degree Days 0 0  
Month to date heating degree days 0 0  
Since 1 June heating degree days 4 6  
Since 1 July heating degree days 0 0  
Cooling Degree Days 4 11  
Month to date cooling degree days 302 288  
Year to date cooling degree days 1188 1124  
Since 1 June cooling degree days 1000 989  
Growing Degree Days 18 (Base 50)    
Moisture  
Dew Point 58 °F    
Average Humidity 70    
Maximum Humidity 93    
Minimum Humidity 48    
Precipitation  
Precipitation 0.00 in 0.09 in 1.50 in (1898)
Month to date precipitation 3.88 2.33  
Year to date precipitation 44.69 30.27  
Snow  
Snow 0.00 in 0.00 in 0.00 in (2002)
Month to date snowfall 0.0 0.0  
Since 1 June snowfall 0.0 0.0  
Since 1 July snowfall 0.0 0.0  
Snow Depth 0.00 in    
Sea Level Pressure  
Sea Level Pressure 30.12 in    
Wind  
Wind Speed 7 mph ()    
Max Wind Speed 18 mph    
Max Gust Speed 24 mph    
Visibility 10.0 miles    
Events      
T = Trace of Precipitation, MM = Missing Value Source: Averaged Metar Reports

Daily Weather History Graph

Daily Weather History Graph

Search for Another Location

Airport or City:

Astronomy

Aug. 24, 2019 Rise Set
Actual Time 6:12 AM CDT 7:31 PM CDT
Civil Twilight 5:45 AM CDT 7:58 PM CDT
Nautical Twilight 5:12 AM CDT 8:31 PM CDT
Astronomical Twilight 4:38 AM CDT 9:05 PM CDT
Moon 12:07 AM CDT (8/24) 2:44 PM CDT (8/24)
Length of Visible Light 14h 13m
Length of Day
13h 18m
Last Quarter, 39% of the Moon is Illuminated
Aug 24
Last Quarter
Aug 30
New
Sep 5
First Quarter
Sep 13
Full
Sep 21
Last Quarter

Hourly Weather History & Observations

Time (CDT) Temp. Dew Point Humidity Pressure Visibility Wind Dir Wind Speed Gust Speed Precip Events Conditions
12:54 AM 64.0 °F 61.0 °F 90% 30.14 in 10.0 mi NNE 5.8 mph - N/A   Clear
1:54 AM 63.0 °F 60.1 °F 90% 30.12 in 10.0 mi NE 6.9 mph - N/A   Clear
2:54 AM 62.1 °F 59.0 °F 90% 30.13 in 10.0 mi NNE 8.1 mph - N/A   Clear
3:54 AM 61.0 °F 57.9 °F 90% 30.14 in 10.0 mi NNE 6.9 mph - N/A   Clear
4:54 AM 61.0 °F 57.0 °F 87% 30.14 in 10.0 mi NE 6.9 mph - N/A   Clear
5:54 AM 60.1 °F 57.0 °F 90% 30.15 in 10.0 mi NE 6.9 mph - N/A   Clear
6:54 AM 61.0 °F 57.0 °F 87% 30.17 in 10.0 mi NE 6.9 mph - N/A   Clear
7:54 AM 64.0 °F 57.0 °F 78% 30.17 in 10.0 mi ENE 10.4 mph - N/A   Clear
8:54 AM 68.0 °F 57.0 °F 68% 30.17 in 10.0 mi ENE 9.2 mph - N/A   Clear
9:54 AM 71.1 °F 55.9 °F 59% 30.17 in 10.0 mi NE 11.5 mph - N/A   Clear
10:54 AM 73.0 °F 55.9 °F 55% 30.16 in 10.0 mi ENE 12.7 mph 24.2 mph N/A   Clear
11:54 AM 73.9 °F 57.0 °F 55% 30.16 in 10.0 mi ENE 11.5 mph - N/A   Clear
12:54 PM 75.9 °F 57.9 °F 54% 30.13 in 10.0 mi East 11.5 mph - N/A   Clear
1:54 PM 77.0 °F 57.9 °F 52% 30.12 in 10.0 mi East 9.2 mph - N/A   Clear
2:54 PM 78.1 °F 57.0 °F 48% 30.10 in 10.0 mi ESE 10.4 mph 19.6 mph N/A   Clear
3:54 PM 75.9 °F 57.9 °F 54% 30.09 in 10.0 mi East 6.9 mph - N/A   Clear
4:54 PM 77.0 °F 57.9 °F 52% 30.07 in 10.0 mi East 10.4 mph - N/A   Clear
5:54 PM 77.0 °F 57.0 °F 50% 30.07 in 10.0 mi ENE 10.4 mph - N/A   Clear
6:54 PM 73.0 °F 59.0 °F 61% 30.07 in 10.0 mi NE 5.8 mph - N/A   Clear
7:54 PM 70.0 °F 60.1 °F 71% 30.08 in 10.0 mi NE 5.8 mph - N/A   Clear
8:54 PM 66.0 °F 60.1 °F 81% 30.10 in 10.0 mi NNE 5.8 mph - N/A   Clear
9:54 PM 66.9 °F 59.0 °F 76% 30.09 in 10.0 mi NNE 8.1 mph - N/A   Clear
10:54 PM 64.9 °F 57.0 °F 75% 30.10 in 10.0 mi NE 8.1 mph - N/A   Clear
11:54 PM 64.0 °F 57.0 °F 78% 30.09 in 10.0 mi NE 6.9 mph - N/A   Clear